Find Shiyan 30-04

NORAD ID: 68140 Int'l Des: 2026-048 Owner: SAST Country: CN operational
LEOCIRCULAR

Aktuelle Ansicht

3D-Globus wird geladen...

About Shiyan 30-04

Shiyan 30-04 (NORAD 68140) is a satellite launched Mar 12, 2026 by SAST of CN. It operates in LEO, CIRCULAR orbit with a mass of 500.00 kg.

Nächste Überflüge

Passes for default location (London). Set your location on the main map for personalized predictions.

Höhenverlauf

Loading altitude history...

Zweizeiliger Elementsatz

1 68140U 26048B 26162.74009272 .00001798 00000-0 17755-3 0 9990
2 68140 34.9922 300.4903 0003763 309.7117 50.3256 14.91803608 13551
Epoch: 11. Juni 2026 • Age: 18 hours

Aktueller Status

Höhe 593.1 km
Geschwindigkeit 7.56 km/s
Subsatellitenpunkt 0.07°N, 31.45°E
Startdatum 12. März 2026
Alter 0.2 years
Typ other

Technische Details

Klassifizierung Payload
Masse 500.00 kg
Trockenmasse 500.00 kg
Gesamtmasse 500.00 kg
Länge 1.40 m
Durchmesser 1.00 m
Spannweite 4.00 m
Form Box+2 pan
Hersteller SAST
Bus-Typ SY30
Phasenstatus In Orbit
Besitzer/Staat SAST/CN

Most Searched